Overview Statistics Trail Chart Weather Telemetry Raw packets
 

This is the latest recevied weather packets stored in our database for station/object LU1MQF-13. If no packets are shown the sender has not sent any weather packets the latest 10 day(s).

<< 1 2 3 4 5 6 7 >>
Time Temp. Humidity Pressure Rain* Wind** Luminosity Snow
1777966927 15° C 48% 933.3 hPa - - - -
1777966027 15° C 48% 933.3 hPa - - - -
1777965127 15° C 49% 933.3 hPa - - - -
1777964227 15° C 49% 933.3 hPa - - - -
1777963327 15° C 49% 933.5 hPa - - - -
1777962427 15° C 49% 933.4 hPa - - - -
1777961528 15° C 49% 933.5 hPa - - - -
1777960627 15° C 49% 933.6 hPa - - - -
1777959727 15° C 49% 933.3 hPa - - - -
1777958827 15° C 49% 933.2 hPa - - - -
1777957927 15° C 49% 933.2 hPa - - - -
1777957027 15° C 50% 933.1 hPa - - - -
1777956128 16.11° C 49% 933.1 hPa - - - -
1777955227 16.11° C 50% 933.2 hPa - - - -
1777954327 17.22° C 53% 933.1 hPa - - - -
1777953427 16.11° C 54% 933.1 hPa - - - -
1777952526 15° C 49% 933.1 hPa - - - -
1777951626 16.11° C 49% 933.2 hPa - - - -
1777950727 16.11° C 49% 933.2 hPa - - - -
1777949827 17.22° C 54% 933.2 hPa - - - -
1777948927 17.22° C 52% 933.2 hPa - - - -
1777948027 16.11° C 47% 933.1 hPa - - - -
1777947127 16.11° C 47% 933 hPa - - - -
1777946227 16.11° C 47% 933.1 hPa - - - -
1777945327 16.11° C 47% 933 hPa - - - -

* Rain since midnight (hover to see other rain measurements)
** Current wind speed in m/s (hover to see current wind gust speed)